Location: Gipe Farm
(40.9466°N, 95.5370°W)
Time: 01:14:55
(UTC-05:00)

Cosmos 1842 - Visible Passes

Search period start: 24 March 2017 00:00
Search period end: 03 April 2017 00:00
Orbit: 524 x 541 km, 82.5° (Epoch: 22 March)

Date Brightness Start Highest point End Pass type
(mag) Time Alt. Az. Time Alt. Az. Time Alt. Az.
31 Mar 5.1 06:37:08 10° SSE 06:40:47 37° E 06:44:27 10° NNE visible
01 Apr 5.2 06:27:25 10° SSE 06:31:02 35° E 06:34:38 10° NNE visible
02 Apr 5.2 06:17:43 10° SSE 06:21:17 34° E 06:24:51 10° NNE visible
